STARLINK-35300, 65800

Orbit data source: Space-Track

STARLINK-35300, 65800 is a payload satellite owned by SpaceX/Seattle (US) in SSO that was launched on Fri, 26 Sep 2025 UTC via an FALCON 9 launch vehicle from the Air Force Western Test Range (AFWTR). Payload-class satellites include a variety of spacecraft equipped with specific instruments for various scientific and technological missions. These include communications satellites like Starlink; space stations such as the ISS; scientific satellites like the Hubble; Earth observation satellites from companies like Planet Labs, Umbra, and HawkEye 360; GPS; miniature CubeSats for education and research; and military/defense satellites.

Loading next visibility...
Identifier
65800, 2025-218K
Orbit
SSO
Country
Flag of USUS
Related business
Manufacturer
SpaceX/Seattle
Mission
Operational Commercial Communications
Bus & Motor
STARLINK V2MO, Unknown motor
Mass
575 kg wet, ~530 kg dry
Launch date (UTC)
2025-09-26 (1 month ago)
Launch vehicle
FALCON 9
Launch site
Air Force Western Test Range (AFWTR)
Object type
Payload
Rocket body
Debris
Shape & HBR
Box + 2 Pan, 17.7 m
Radar Cross Section
36.964 m²

Expand to show TLE details & history
Last TLE update: 2 days ago

TLE from 2 days ago
0 STARLINK-35300
1 65800U 25218K   25312.58809860  .00016023  00000-0  11116-2 0  9998
2 65800  97.6016 173.5223 0002278  86.0503 274.0984 15.05666425  6745
Epoch: 2025-11-08T14:06Z
TLE epoch observation values (Epoch: 2025-11-08T14:06:51.719Z)
Latitude
-0.00001°
Longitude
-86.20875°
Altitude
552.414 km
Speed
7.586 km/s
True Right ascension
11h 34m 05s
True Declination
0° 00' 00"
Sunlit
Object was in daylight at epoch
Visualization orbit readout
Latitude
Unknown
Longitude
Unknown
Altitude
Unknown
Speed
Unknown
Apparent Right ascension
Unknown
Apparent Declination
Unknown
Sunlit
N/A
Visualization observer readout
Local Sidereal Time
04:30:19
Azimuth
Unknown
Elevation
Unknown
Doppler factor
Unknown
Orbital elements
Apogee altitude
548.032 km
Perigee altitude
544.877 km
Semi-major axis
6,924.591 km
Eccentricity
0.00023
Inclination
97.6016°
RAAN
173.5223°
Arg. of periapsis
86.0503°
True anomaly
274.07236°
Mean anomaly
274.0984°
Eccentric anomaly
274.08538°
Mean motion
3.76662 °/min
Orbital period
95.58 mins
BSTAR
0.0011116
Loading maneuver chart data...
Computing Atmospheric mass density...
Loading historical data...
Loading historical data...
Loading historical data...
Loading historical data...
Loading historical data...
Loading historical data...
Loading historical data...

Documentation

Showing up to 5 results
|